,

(GMT )
Al Udeid

Weather History for KQIR - October, 2013

Change the Weather History Date:

Wednesday, October 23, 2013

  Actual Average Record
Temperature  
Mean Temperature 76 °F -  
Max Temperature 87 °F - - ()
Min Temperature 64 °F - - ()
Cooling Degree Days 10    
Growing Degree Days 26 (Base 50)    
Moisture  
Dew Point 51 °F    
Average Humidity 45    
Maximum Humidity 67    
Minimum Humidity 26    
Precipitation  
Precipitation 0.00 in - - ()
Sea Level Pressure  
Sea Level Pressure 29.94 in    
Wind  
Wind Speed 9 mph ()    
Max Wind Speed 16 mph    
Max Gust Speed 24 mph    
Visibility 6.2 miles    
Events      
Averages and records for this station are not official NWS values.
T = Trace of Precipitation, MM = Missing Value Source: Averaged Metar Reports

Daily Weather History Graph

Daily Weather History Graph

Search for Another Location

Airport or City:

Trip Planner

Search our weather history database for the weather conditions in past years. The results will help you decide how hot, cold, wet, or windy it might be!

Date:

Astronomy

Oct. 23, 2013 Rise Set
Actual Time 5:37 AM +03 5:00 PM +03
Civil Twilight 5:13 AM +03 5:23 PM +03
Nautical Twilight 4:46 AM +03 5:50 PM +03
Astronomical Twilight 4:20 AM +03 6:17 PM +03
Moon 8:26 PM +03 (10/23) 9:20 AM +03 (10/23)
Length of Visible Light 12h 10m
Length of Day
11h 23m
Waning Gibbous, 82% of the Moon is Illuminated
Oct 23
Waning Gibbous
Oct 27
Last Quarter
Nov 3
New
Nov 10
First Quarter
Nov 17
Full

Hourly Weather History & Observations

Time (+03) Temp. Heat Index Dew Point Humidity Pressure Visibility Wind Dir Wind Speed Gust Speed Precip Events Conditions
12:55 AM 66.4 °F - 52.3 °F 61% 29.91 in 6.2 mi WNW 8.1 mph - N/A   Clear
1:55 AM 66.0 °F - 53.2 °F 63% 29.91 in 6.2 mi WNW 10.4 mph - N/A   Clear
2:55 AM 64.9 °F - 51.8 °F 62% 29.91 in 6.2 mi West 9.2 mph - N/A   Clear
3:55 AM 64.6 °F - 52.3 °F 64% 29.92 in 6.2 mi West 11.5 mph - N/A   Clear
4:55 AM 65.5 °F - 54.3 °F 67% 29.93 in 6.2 mi West 10.4 mph - N/A   Clear
5:55 AM 66.2 °F - 52.5 °F 61% 29.94 in 6.2 mi West 10.4 mph - N/A   Clear
6:55 AM 69.6 °F - 50.7 °F 51% 29.97 in 6.2 mi West 10.4 mph - N/A   Clear
7:55 AM 75.2 °F - 50.4 °F 42% 29.99 in 6.2 mi WNW 11.5 mph - N/A   Clear
8:55 AM 80.6 °F 80.2 °F 53.1 °F 38% 30.00 in 6.2 mi WNW 15.0 mph - N/A   Clear
9:55 AM 84.2 °F - 52.7 °F 34% 29.98 in 6.2 mi NW 11.5 mph - N/A   Clear
10:55 AM 86.2 °F - 50.5 °F 29% 29.96 in 6.2 mi NNW 15.0 mph - N/A   Clear
11:55 AM 87.3 °F - 49.5 °F 27% 29.94 in 6.2 mi NW 13.8 mph - N/A   Clear
12:55 PM 87.8 °F - 50.5 °F 28% 29.91 in 6.2 mi NNW 15.0 mph 24.2 mph N/A   Clear
1:55 PM 87.8 °F - 48.4 °F 26% 29.90 in 6.2 mi NW 15.0 mph - N/A   Clear
2:55 PM 87.1 °F - 51.3 °F 29% 29.91 in 6.2 mi NNW 13.8 mph - N/A   Clear
3:55 PM 86.0 °F - 47.5 °F 26% 29.91 in 6.2 mi North 16.1 mph - N/A   Clear
4:55 PM 83.1 °F - 48.7 °F 30% 29.92 in 6.2 mi NNW 13.8 mph - N/A   Clear
5:55 PM 79.3 °F - 49.8 °F 36% 29.94 in 6.2 mi NNW 9.2 mph - N/A   Clear
6:55 PM 76.8 °F - 50.5 °F 40% 29.95 in 6.2 mi NW 5.8 mph - N/A   Clear
7:55 PM 74.7 °F - 51.8 °F 45% 29.95 in 6.2 mi NW 8.1 mph - N/A   Clear
8:55 PM 72.0 °F - 52.2 °F 50% 29.95 in 6.2 mi WNW 4.6 mph - N/A   Clear
9:55 PM 70.3 °F - 53.2 °F 55% 29.95 in 6.2 mi WNW 6.9 mph - N/A   Clear
10:55 PM 69.4 °F - 54.1 °F 58% 29.95 in 6.2 mi NW 4.6 mph - N/A   Clear
11:55 PM 66.9 °F - 53.6 °F 62% 29.94 in 6.2 mi WNW 3.5 mph - N/A   Clear